Theta_e
319 319 319 319 318 318 318 318 318 318 318 318 318 318 318 318 318 318 317 317 317 316 317 316 316 316 315 315 315 315 315 314 314 313 314 315 318 321 323 322 324 326 327
317 317 317 317 317 317 317 317 317 317 317 317 317 317 317 317 317 316 316 316 315 315 315 314 312 312 312 311 311 312 313 313 313 312 311 312 313 314 319 322 325 324 325
315 315 314 314 314 315 315 315 315 315 315 316 316 315 314 314 314 314 315 314 312 312 311 311 310 309 309 308 308 308 309 311 311 310 310 310 312 313 315 320 323 324 326
313 313 313 313 313 313 314 314 315 315 315 314 313 312 312 313 314 313 312 311 311 310 310 310 309 309 308 308 307 307 308 308 308 309 309 308 308 308 311 314 322 324 325
312 312 312 312 312 312 312 313 313 312 312 311 311 311 312 312 312 312 310 310 310 309 308 308 307 308 308 307 307 308 307 307 307 307 306 306 306 307 308 310 314 320 324
312 311 311 311 310 309 308 308 308 308 308 308 309 310 311 311 311 309 310 309 308 307 307 307 307 307 305 305 305 306 306 307 306 306 306 306 306 307 308 309 312 317 323
309 308 307 306 305 304 304 304 304 304 304 305 306 309 310 309 308 309 309 308 307 307 307 307 306 305 305 306 306 306 305 306 306 306 306 306 306 307 307 308 310 315 321
304 303 302 302 302 302 302 302 302 302 303 302 303 306 307 307 307 308 308 307 306 307 306 306 305 306 306 305 305 305 305 304 305 305 306 306 305 305 306 307 309 312 315
300 299 299 299 299 300 300 300 300 300 300 301 303 305 306 306 306 306 306 306 306 307 307 306 306 305 305 304 303 303 303 303 304 305 305 304 304 306 307 308 309 314 316
298 297 297 296 297 298 299 299 299 300 300 302 304 304 305 305 306 306 306 306 307 307 307 305 304 304 304 304 304 303 303 303 304 305 305 305 305 306 306 306 307 309 317
296 295 295 295 296 297 297 298 299 299 300 303 303 304 305 306 305 305 306 307 307 306 305 305 305 305 305 306 304 303 303 304 304 305 305 306 307 308 310 313 313 311 315
293 294 294 294 295 296 296 297 297 299 301 302 301 303 303 304 304 304 306 308 307 306 305 305 306 309 311 312 311 312 311 306 303 303 305 306 307 310 313 315 316 316 318
293 293 294 294 294 295 296 296 297 298 299 299 300 302 302 303 303 304 306 308 307 306 306 308 308 311 312 312 316 315 314 314 312 305 304 306 308 312 315 318 319 320 319
292 292 292 293 293 294 294 295 296 297 298 299 299 300 301 301 302 304 306 305 305 308 308 309 312 314 315 317 318 317 316 314 315 314 315 310 312 314 316 317 321 321 321
292 291 291 291 292 293 293 294 295 296 296 297 298 299 300 301 302 303 306 309 309 310 310 311 313 314 316 316 318 318 317 317 314 314 316 316 318 319 320 322 322 323 322
291 290 290 291 292 292 293 294 295 296 298 301 302 300 297 297 305 311 312 312 313 313 312 311 314 318 319 316 316 319 318 316 315 315 315 315 316 316 315 319 323 321 316
291 289 289 290 291 292 292 293 293 297 298 298 299 299 299 301 309 312 315 314 316 317 315 318 319 321 319 318 320 319 320 321 318 316 315 315 321 322 320 323 320 318 316
292 290 289 289 290 290 291 291 292 293 295 296 296 295 296 301 305 308 317 318 317 318 317 318 319 321 319 319 321 321 322 323 322 318 318 320 323 323 322 322 321 319 320
292 291 290 290 290 290 290 290 291 292 292 293 293 294 295 297 300 306 306 310 312 314 315 318 320 320 320 321 322 322 322 323 324 322 319 319 323 322 322 322 322 322 319
293 292 290 290 289 290 289 289 289 290 290 291 291 290 290 293 295 297 300 302 305 309 313 317 320 316 317 315 313 315 317 319 324 324 323 324 323 322 322 323 320 317 312
294 292 291 290 289 289 289 289 289 289 289 289 289 289 289 291 292 293 295 297 300 306 310 309 307 307 306 306 304 306 307 311 317 324 326 325 324 323 324 320 315 312 310
292 292 290 290 290 289 289 288 288 288 289 288 288 288 288 289 290 290 292 294 297 299 305 308 304 301 301 300 300 301 302 305 317 322 325 326 326 324 322 320 315 313 313
290 290 289 287 288 289 290 289 288 288 288 288 288 288 288 288 288 289 290 292 294 295 298 303 300 298 297 297 298 299 303 303 310 320 324 325 325 322 321 319 317 315 313
289 288 288 287 286 286 287 288 288 288 287 287 287 287 287 287 288 288 288 290 292 293 293 296 298 296 297 299 303 303 305 309 314 322 323 325 325 324 323 321 318 315 312
289 289 288 287 286 285 285 286 286 288 286 287 287 287 286 286 287 287 287 288 289 291 291 293 293 294 295 297 300 305 309 310 314 320 322 321 322 323 323 321 319 316 313
288 289 288 287 286 285 285 285 284 285 285 285 286 286 285 285 286 286 286 286 287 288 289 289 290 291 292 294 297 301 308 310 311 316 321 321 320 320 320 318 318 317 316
Wind_Speed
12 11 10 9 7 6 7 7 8 10 11 13 13 15 16 16 16 17 19 21 22 22 23 23 22 20 21 21 24 25 25 22 13 21 23 26 29 31 34 39 37 27 29
13 10 9 8 7 8 9 9 11 12 14 16 17 17 18 18 18 20 22 22 23 21 18 11 14 18 20 23 23 23 24 25 23 15 24 24 26 30 32 33 33 35 30
15 13 13 12 11 11 13 14 16 18 17 14 15 20 24 24 24 23 19 14 14 15 16 15 19 22 22 22 25 27 28 28 28 27 25 24 24 24 27 29 31 32 32
13 13 12 12 13 14 14 15 15 15 14 15 18 19 21 21 20 17 14 20 24 26 28 28 28 28 26 27 31 30 28 27 27 27 26 24 23 25 25 25 28 29 26
14 13 13 13 14 14 16 16 14 13 14 16 20 21 22 21 16 17 24 26 27 26 27 29 27 27 26 31 32 31 29 27 26 26 24 23 21 18 20 23 24 26 31
14 15 15 15 16 17 18 18 18 19 20 21 22 22 24 22 21 22 23 26 28 29 27 28 26 29 33 32 33 35 35 32 30 27 25 21 21 19 25 23 22 20 7
17 17 19 19 19 20 21 22 23 24 24 22 22 21 20 23 24 24 24 29 33 32 30 28 31 30 31 31 32 32 37 37 39 36 32 30 26 21 25 25 23 20 19
18 20 21 21 21 21 21 20 20 19 18 25 23 20 21 23 24 25 28 35 33 30 30 33 32 32 30 31 31 29 30 32 35 34 34 32 32 31 31 30 28 24 27
19 19 19 20 20 19 18 19 20 20 24 24 22 21 21 24 26 30 30 35 27 30 34 33 30 33 40 36 33 30 29 33 32 36 39 38 37 36 34 26 23 15 11
17 18 19 20 20 18 19 20 20 22 22 21 20 22 23 26 26 30 29 29 27 28 29 30 33 37 39 37 33 29 29 37 30 28 28 33 35 36 40 41 32 21 15
17 18 19 18 17 16 18 18 18 20 21 20 22 21 21 21 26 28 26 30 22 26 24 30 32 36 37 39 39 34 37 40 33 29 29 27 27 29 30 30 36 33 25
18 18 18 18 17 15 17 18 19 18 17 16 19 19 19 22 24 26 26 21 26 26 29 32 38 37 38 38 37 29 27 35 32 29 26 25 25 23 27 27 28 35 34
18 18 18 17 16 18 16 17 16 15 15 16 15 18 21 23 25 26 24 22 27 33 32 37 42 42 39 34 26 22 24 25 21 18 19 22 24 22 22 17 22 28 33
22 19 18 18 18 17 18 16 16 16 16 15 16 19 22 24 23 23 22 28 32 33 31 40 41 37 27 27 33 27 21 22 23 21 14 22 21 21 21 21 20 22 17
22 20 18 19 19 20 19 18 17 16 15 19 21 22 22 23 25 31 32 32 31 30 34 35 35 26 23 22 20 22 20 14 14 17 13 6 13 17 15 20 18 16 14
22 22 20 20 18 18 19 21 20 19 18 16 14 21 22 22 25 24 25 24 21 22 22 23 27 22 20 19 18 16 19 15 7 12 11 7 3 13 10 14 15 21 21
23 23 20 18 18 21 23 22 23 29 20 24 24 32 33 31 21 23 20 17 14 23 22 26 27 22 8 17 20 20 19 15 9 9 13 21 1 20 25 20 23 26 22
26 24 21 19 19 22 21 20 19 19 21 27 31 36 39 34 29 35 28 21 25 25 26 23 24 26 8 20 26 26 24 18 7 11 12 21 28 29 28 26 23 25 23
20 27 23 21 21 20 20 20 21 21 21 22 29 40 42 38 33 38 37 31 25 29 30 30 28 28 30 24 24 27 27 23 19 19 19 23 28 29 28 26 25 27 26
15 25 29 23 22 20 22 22 23 23 23 23 26 31 38 35 35 33 33 31 29 29 33 32 30 27 25 27 29 28 28 29 25 22 24 20 24 26 25 24 22 20 20
11 19 26 23 24 22 22 22 21 21 22 23 23 31 33 26 25 26 26 30 33 37 36 36 34 30 30 29 35 39 34 33 36 24 23 23 23 22 20 22 22 23 23
19 14 20 20 19 24 22 24 23 22 22 24 25 30 33 30 29 29 30 32 35 34 34 30 33 35 33 34 36 41 41 36 35 33 24 24 23 23 25 22 21 20 19
20 21 20 24 22 21 20 21 23 25 23 24 26 27 31 31 32 32 31 32 33 35 37 31 33 33 38 39 40 41 44 40 31 28 26 26 23 21 21 20 20 19 19
21 21 19 21 23 25 25 22 22 23 24 24 25 25 27 30 30 34 35 35 36 34 32 31 30 40 42 42 40 40 41 40 37 26 24 23 23 21 19 17 14 15 18
19 18 20 20 20 21 25 24 25 22 25 25 26 26 28 29 30 32 35 35 36 37 36 32 35 36 39 38 37 35 33 32 34 28 22 21 19 19 19 17 16 15 16
20 18 21 20 22 20 20 21 23 24 24 26 26 26 27 28 29 32 34 39 39 35 32 33 35 33 36 38 38 36 29 26 29 29 23 18 19 16 15 15 13 13 11
Wind_Direction
90 88 75 62 47 27 8 -0 347 331 326 320 312 306 300 300 305 306 300 295 291 290 286 287 290 295 300 303 296 287 281 280 284 291 291 300 307 304 300 294 291 293 284
87 76 70 57 33 3 345 334 325 318 315 315 319 312 311 310 309 305 299 296 289 294 299 302 304 304 305 305 303 297 292 284 272 286 293 294 292 298 302 298 295 287 284
50 43 36 26 9 353 340 332 325 325 321 315 311 313 313 314 308 300 301 304 319 310 305 305 304 303 303 303 300 292 284 280 279 280 284 282 289 291 297 306 289 286 279
29 21 12 0 350 343 335 329 325 316 303 306 312 308 303 299 294 302 311 322 321 315 312 309 304 299 296 294 287 278 276 276 278 276 276 280 281 285 293 296 295 281 279
9 1 359 355 352 351 351 350 347 343 333 324 314 309 304 299 305 310 316 318 318 314 307 300 291 282 277 284 280 275 273 275 272 271 274 276 270 272 275 282 291 301 279
357 358 354 2 2 359 353 346 338 328 324 319 312 309 302 301 305 317 313 314 311 305 301 296 292 288 286 283 280 275 270 268 267 265 266 264 263 258 265 269 279 287 281
6 11 10 3 355 351 343 338 332 326 322 318 313 310 304 302 306 304 308 309 307 300 296 288 288 284 282 279 278 273 274 272 266 262 263 261 262 257 263 266 266 272 276
13 10 1 349 345 338 335 330 324 320 314 311 305 311 313 310 305 304 305 309 304 296 293 290 285 282 277 280 280 279 275 273 264 258 254 258 260 257 249 255 262 270 275
6 357 349 342 335 330 327 322 317 315 310 314 309 308 309 306 303 304 305 306 298 297 294 289 281 284 288 287 285 280 278 273 269 260 255 257 258 256 254 257 266 259 254
352 344 335 329 331 320 318 316 310 312 308 304 301 302 301 298 304 306 310 308 299 294 295 293 293 289 290 290 286 278 275 269 268 258 254 259 263 256 252 248 243 242 247
339 333 329 326 321 320 319 317 311 309 309 300 300 301 300 300 306 315 319 311 303 301 299 300 295 293 295 297 293 276 265 269 266 262 254 250 247 242 246 242 241 223 230
338 331 329 334 325 322 322 323 322 314 313 319 316 310 312 315 313 316 314 297 311 303 301 294 295 303 305 305 307 305 297 286 268 260 250 242 237 231 235 243 227 216 220
345 339 336 335 335 332 329 329 327 326 322 316 318 314 317 321 313 315 313 310 305 311 296 303 311 312 313 314 306 287 299 304 279 242 231 229 223 222 221 227 226 220 227
358 350 348 343 343 343 342 337 329 324 321 320 319 314 309 308 309 313 316 313 316 311 317 313 315 320 328 324 322 309 281 291 304 312 253 223 218 210 214 216 199 193 194
356 355 352 351 348 344 344 336 328 327 324 315 312 308 308 311 314 314 314 316 310 310 316 319 317 323 323 327 329 321 312 288 314 332 5 105 186 178 171 189 188 181 148
4 3 360 352 345 344 342 341 355 357 6 12 2 354 345 348 349 329 322 318 322 327 321 313 321 326 307 318 341 326 290 298 300 15 358 337 273 190 187 173 157 129 119
19 10 6 358 354 358 359 357 349 359 11 12 7 2 10 18 10 359 347 351 14 360 338 335 331 336 271 16 2 347 331 297 244 290 314 305 232 166 150 136 119 119 120
30 25 17 6 5 6 358 356 358 357 355 353 1 2 12 25 18 25 31 29 15 5 352 344 336 348 265 23 11 351 357 16 87 242 333 44 84 100 113 116 115 116 117
43 33 24 18 14 11 5 11 11 7 6 2 3 6 14 18 17 32 32 32 16 2 351 348 358 25 35 33 14 5 359 9 56 72 80 56 73 87 96 101 109 115 116
48 40 36 23 16 16 18 20 18 13 11 13 12 5 0 11 18 11 14 15 14 10 8 7 9 26 23 16 12 16 10 11 18 81 93 92 87 93 103 98 99 102 98
57 44 38 34 25 23 24 22 20 20 15 16 12 8 16 16 13 11 10 14 12 14 15 16 20 24 20 20 25 27 20 17 23 22 97 109 107 106 101 105 108 108 108
44 50 40 28 24 26 27 28 26 23 21 18 15 11 17 21 18 13 13 17 15 16 17 19 22 20 16 18 24 28 25 27 32 28 33 80 102 102 111 109 104 110 111
49 42 39 31 23 18 18 25 27 25 23 21 20 17 15 15 17 15 13 14 19 19 23 19 20 20 18 20 25 27 27 28 28 33 37 71 81 96 111 116 122 123 124
51 45 41 33 28 24 19 23 20 27 24 21 21 21 20 17 14 14 15 16 22 20 14 18 18 19 16 19 21 22 24 31 36 52 57 67 90 98 105 112 117 128 132
51 45 41 41 35 29 22 22 18 24 21 20 19 18 18 17 15 14 15 14 18 17 10 13 16 13 13 14 16 18 20 30 37 50 62 63 74 84 94 101 108 115 138
47 51 47 46 40 37 29 23 22 21 21 18 17 17 17 16 15 13 11 13 15 12 6 8 13 13 8 14 14 15 20 23 31 42 55 52 62 75 84 90 100 117 139